Regional Weather Roundup
Issued by NWS

Home | Current Version | Previous Version | Graphics & Text | Print | Product List | Glossary On
Versions: 1 2 3 4 5 6 7 8 9 10 11 12 13 14 15 16 17 18 19 20 21 22 23 24 25 26 27 28 29 30 31 32 33 34 35 36 37 38 39 40 41 42 43 44 45 46 47 48 49 50
000
ASUS43 KDMX 290207
RWRIA

WEATHER ROUNDUP FOR IOWA
NATIONAL WEATHER SERVICE DES MOINES IA
900 PM CDT MON JUL 28 2014

NOTE: "FAIR" INDICATES FEW OR NO CLOUDS BELOW 12,000 FEET WITH NO
SIGNIFICANT WEATHER AND/OR OBSTRUCTIONS TO VISIBILITY.

* - THESE STATIONS ARE NOT NWS STATIONS...THUS NOT UNDER NWS
QUALITY CONTROL.  THEY ALSO DO NOT REPORT WEATHER SUCH
AS PRECIPITATION OR FOG.

IAZ001>003-012>014-020>022-031>034-043>046-290300-
   NORTHWEST IOWA

CITY           SKY/WX    TMP DP  RH WIND       PRES   REMARKS
CARROLL *      CLEAR     63  61  94 W5        30.17S
CHEROKEE *     CLEAR     66  59  77 CALM      30.19R
DENISON *      PTCLDY    68  59  73 NE6       30.17R
LE MARS *      CLEAR     66  59  77 CALM      30.19S
ORANGE CITY *  PTCLDY    70  55  60 NE5       30.20S
SHELDON *      PTCLDY    63  59  88 NE5       30.19S
SIOUX CITY     MOCLDY    69  58  67 NW5       30.18S
SPENCER        CLEAR     65  56  72 N6        30.19S
STORM LAKE *   MOCLDY    63  61  94 N5        30.20R
$$

IAZ055>058-069>071-079>083-090>094-290300-
   SOUTHWEST IOWA

CITY           SKY/WX    TMP DP  RH WIND       PRES   REMARKS
ATLANTIC *     PTCLDY    66  59  77 N6        30.17R
AUDUBON *      PTCLDY    66  63  88 CALM      30.19S
CLARINDA *     CLEAR     68  59  73 NW6       30.18S
COUNCIL BLFS *   N/A     68  59  73 N6        30.17S
CRESTON *      CLOUDY    66  61  82 NE6       30.17S
HARLAN  *      MOCLDY    68  61  77 N6        30.21S
LAMONI         MOCLDY    67  58  72 NE5       30.16R
RED OAK *      CLEAR     66  59  77 NW3       30.17S
SHENANDOAH *   CLEAR     68  59  73 NW3       30.17F
$$

IAZ047>049-059>061-072>074-084-290300-
   CENTRAL IOWA

CITY           SKY/WX    TMP DP  RH WIND       PRES   REMARKS
AMES           MOCLDY    64  61  90 W6        30.15S
ANKENY *       CLEAR     64  61  88 CALM      30.15S
CHARITON *     PTCLDY    64  59  82 NW7       30.16R
DES MOINES     PTCLDY    70  58  65 CALM      30.15S
GRINNELL*      CLEAR     64  59  82 CALM      30.16R
KNOXVILLE *    CLOUDY    66  59  77 NW5       30.14R
MARSHALLTOWN   CLEAR     66  59  78 CALM      30.14S
PELLA *        PTCLDY    64  59  82 NW3       30.16R
PERRY *          N/A     64  63  94 CALM      30.16S
$$

IAZ004>006-015-016-023>025-035-036-290300-
   NORTH CENTRAL IOWA

CITY           SKY/WX    TMP DP  RH WIND       PRES   REMARKS
ALGONA *       CLEAR     66  59  77 NW5       30.18R
CLARION *      CLEAR     63  59  88 N5        30.16S
ESTHERVILLE    CLEAR     62  56  80 NW5       30.18S
FORT DODGE *   CLEAR     64  55  72 CALM      30.18R
MASON CITY     CLEAR     63  57  81 NW3       30.17S
FOREST CITY *  CLEAR     63  55  77 CALM      30.16S
IOWA FALLS *     N/A     64  57  77 CALM      30.17R
$$

IAZ007>011-017>019-026>030-037>042-050>054-066-290300-
   NORTHEAST IOWA

CITY           SKY/WX    TMP DP  RH WIND       PRES   REMARKS
CEDAR RAPIDS   PTCLDY    63  56  78 W8        30.12S
CHARLES CITY * CLEAR     61  59  94 CALM      30.15S
CLINTON *      CLEAR     61  54  77 NW6       30.14R
DECORAH *      CLEAR     64  55  72 CALM      30.13S
DUBUQUE        CLEAR     60  54  80 NW5       30.12S
MONTICELLO *   CLEAR     61  57  88 CALM      30.12S
OELWEIN *      CLEAR     63  59  88 NW5       30.15R
WATERLOO       CLEAR     65  57  75 CALM      30.13R
$$

IAZ064-065-067-068-078-290300-
   EAST CENTRAL IOWA

CITY           SKY/WX    TMP DP  RH WIND       PRES   REMARKS
DAVENPORT      CLEAR     61  54  77 NW3       30.12S
IOWA CITY      CLEAR     64  59  83 W6        30.13S
MT. PLEASANT * CLEAR     66  55  68 NW3       30.13S
MUSCATINE *    CLEAR     63  57  82 CALM      30.12S
QUAD CITIES    CLEAR     61  53  75 CALM      30.11S
$$

IAZ062-063-075>077-085>089-095>099-290300-
   SOUTHEAST IOWA

CITY           SKY/WX    TMP DP  RH WIND       PRES   REMARKS
BURLINGTON     CLEAR     63  56  78 NW5       30.12S
FAIRFIELD *    CLEAR     63  59  88 NW5       30.14R
FORT MADISON * CLEAR     64  61  88 CALM      30.14R
KEOKUK *       CLEAR     66  57  72 CALM      30.12S
OSKALOOSA *    MOCLDY    66  61  82 N3        30.14S
CENTERVILLE *  CLEAR     63  61  94 CALM      30.17R
OTTUMWA        MOCLDY    66  60  81 CALM      30.14R
WASHINGTON *   CLEAR     63  59  88 NW6       30.13S
$$

ABBREVIATIONS USED IN REMARKS
   TC - TEMPERATURES IN CELSIUS
  WCI - WIND CHILL INDEX
   HX - HEAT INDEX
  VSB - VISIBILITY
$$



USA.gov is the U.S. government's official web portal to all federal, state and local government web resources and services.